Find Hubble Space Telescope

NORAD ID: 20580 Int'l Des: 1990-037 Owner: GSFC Country: US operational
LEOCIRCULAR

当前视图

正在加载3D地球...

关于 Hubble Space Telescope

正在加载描述...

即将过境

Passes for default location (London). Set your location on the main map for personalized predictions.

高度历史

Loading altitude history...

两行轨道根数

1 20580U 90037B 26150.53921556 .00006911 00000-0 21966-3 0 9998
2 20580 28.4720 201.1735 0001466 321.2423 38.8067 15.30552064785860
Epoch: May 30, 2026 • Age: 12 hours

当前状态

高度 475.1 km
速度 7.63 km/s
星下点 -11.13°S, 138.7°E
发射日期 Apr 24, 1990
运行时间 36.1 years
类型 scientific

技术详情

分类 Payload
质量 7547.00 kg
干质量 7547.00 kg
总质量 10843.00 kg
长度 13.10 m
直径 4.30 m
跨度 13.10 m
形状 Step Cyl + 2 Pan
制造商 LMSC
平台类型 HST
阶段状态 Attached
所有者/国家 GSFC/US

Most Searched